Location: Unspecified
(51.3304°N, 0.5782°E)
Time: 20:38:12
(UTC+00:00)

ISS - Pass Details

Date: 08 December 2021
Orbit: 413 x 422 km, 51.6° (Epoch: 20 January)

Event Time Altitude Azimuth Distance (km) Brightness Sun altitude
Rises 16:49:18 0° 284° (WNW) 2,388 1.0 -8.7°
Reaches altitude 10° 16:51:37 10° 271° (W) 1,518 0.2 -9.1°
Maximum altitude 16:54:29 25° 214° (SSW) 891 -1.3 -9.5°
Drops below altitude 10° 16:57:20 10° 156° (SSE) 1,506 -0.9 -9.9°
Enters shadow 17:02:57 -10° 136° (SE) 3,682 0.8 -10.7°
